Location: Sungai Dangang
(2.7500°N, 113.8333°E)
Time: 12:12:19
(UTC+00:00)

Ariane H10+ - Pass Details

Date: 27 September 2021
Orbit: 237 x 7764 km, 6.8° (Epoch: 15 October)

Event Time Altitude Azimuth Distance (km) Brightness Sun altitude
Rises 10:26:52 0° 272° (W) 5,062 9.4 -2.9°
Reaches altitude 10° 10:31:50 10° 267° (W) 2,975 7.1 -4.1°
Maximum altitude 10:37:43 45° 195° (SSW) 707 2.0 -5.6°
Drops below altitude 10° 10:40:17 10° 119° (ESE) 1,309 2.7 -6.2°
Enters shadow 10:40:47 - 115° (ESE) 1,523 3.0 -6.4°
